SCP
-0 -0 -0 -0 0 0 0 0 0 0 -0 -0 0 0 0 0 0 0 0 0 0 0 0 0 0 0 0 0 0 0 0 0 0 0 0 0 0 0 0 0 0 0 0 0 0
-0 -0 -0 -0 0 0 0 0 0 0 -0 -0 -0 0 0 0 0 0 0 0 0 0 0 0 0 0 0 0 0 0 0 0 0 0 0 0 0 0 0 0 0 0 0 0 0
0 -0 0 -0 0 0 0 0 0 0 0 -0 -0 0 0 0 0 0 0 -0 0 0 0 0 0 0 0 0 0 0 0 0 0 0 0 0 0 0 0 0 0 0 0 0 0
0 0 0 0 0 0 0 0 0 0 0 0 -0 0 0 0 0 0 0 -0 0 0 0 0 0 0 0 0 0 0 0 0 0 0 0 0 0 0 0 0 0 0 0 0 0
0 0 -0 0 0 0 0 0 -0 0 0 0 0 -0 0 0 0 0 0 0 0 0 0 0 0 0 0 0 0 0 0 0 0 0 0 0 0 0 0 0 0 0 0 0 0
0 -0 -0 0 0 0 0 0 -0 -0 -0 0 -0 -0 0 0 0 0 0 0 0 0 0 0 0 0 0 0 0 0 0 0 0 0 0 0 0 0 0 0 0 0 0 0 0
0 0 -0 0 0 -0 0 0 -0 -0 -0 -0 -0 -0 0 -0 0 0 0 0 0 0 0 0 0 0 0 0 0 0 0 0 0 0 0 0 0 0 0 0 0 0 0 0 0
0 0 0 -0 0 0 -0 -0 -0 -0 -0 -0 0 0 -0 0 0 0 0 0 0 0 0 0 0 0 0 0 0 0 0 0 0 0 0 0 0 0 0 0 0 0 0 0 0
0 -0 -0 -0 -0 0 -0 -0 -0 0 0 0 0 -0 -0 0 0 -0 -0 0 0 0 0 0 0 0 0 0 0 0 0 0 0 0 0 0 0 0 0 0 0 0 0 0 0
0 -0 -0 -0 0 0 -0 0 0 -0 0 0 -0 0 0 0 0 0 0 0 0 0 0 0 0 0 0 0 0 0 0 0 0 0 0 0 0 0 0 0 0 0 0 0 0
0 0 0 -0 -0 0 0 0 0 0 0 0 0 -0 0 0 0 0 0 0 0 0 0 0 0 0 0 0 0 0 0 0 0 0 0 0 0 0 0 0 0 0 0 0 0
0 0 0 -0 -0 0 0 0 0 0 0 -0 -0 -0 -0 0 0 0 0 0 0 0 0 0 0 0 0 0 0 0 0 0 0 0 0 0 0 0 0 0 0 0 0 0 0
0 0 0 -0 0 0 0 0 0 0 0 0 0 0 -0 0 0 0 0 0 0 0 0 0 0 0 0 0 0 0 0 0 0 0 0 0 0 0 0 0 0 0 0 0 0
0 0 -0 -0 0 0 0 0 0 0 0 0 0 0 0 0 0 0 0 0 0 0 0 0 0 0 0 0 0 0 0 0 0 0 0 0 -0 0 0 0 0 0 0 0 0
0 0 0 0 0 0 0 0 0 0 0 0 0 0 0 0 0 0 0 0 0 0 0 0 0 0 0 0 0 0 0 0 0 0 0 0 0 0 0 0 0 0 0 0 0
-0 -0 0 0 0 0 0 0 0 0 0 0 0 0 0 0 0 0 0 0 0 0 0 0 0 0 0 0 0 0 0 0 0 0 0 0 0 0 0 0 0 0 0 0 0
-0 -0 0 0 0 0 0 0 0 0 0 0 0 0 0 0 0 0 0 0 0 0 0 0 0 0 0 0 0 0 0 0 0 0 0 0 0 0 0 0 0 0 0 0 0
-0 -0 0 0 0 0 0 0 0 0 0 0 0 0 0 0 0 0 0 0 0 0 0 0 0 0 0 0 0 0 0 0 0 0 0 0 0 0 0 0 0 0 0 0 0
-0 0 0 0 -0 0 0 0 0 0 0 0 0 0 0 0 0 0 0 0 0 0 0 0 0 0 0 0 0 0 0 0 0 0 0 0 0 0 0 0 0 0 0 0 0
0 0 0 0 0 0 0 0 0 0 0 0 0 0 0 0 0 0 0 0 0 0 0 0 0 0 0 0 0 0 0 0 0 0 0 0 0 0 0 0 0 0 0 0 0
0 0 0 -0 0 0 0 0 0 0 0 0 0 0 0 0 0 0 0 0 0 0 0 0 0 0 0 0 0 0 0 0 0 0 0 0 0 0 0 0 0 0 0 0 0
0 0 0 0 0 0 0 0 0 0 0 0 0 0 0 0 0 0 0 0 0 0 0 0 0 0 0 0 0 0 0 0 0 0 0 0 0 0 0 0 0 0 0 0 0
0 0 0 0 0 0 0 0 0 0 0 0 0 0 0 0 0 0 0 0 0 0 0 0 0 0 0 0 0 0 0 0 0 0 0 0 0 0 0 0 0 0 0 0 0
0 0 0 0 0 0 0 0 0 0 0 0 0 0 0 0 0 0 0 0 0 0 0 0 0 0 0 0 0 0 0 0 0 0 0 0 0 0 0 0 0 0 0 0 0
0 0 0 0 0 0 0 0 0 0 0 0 0 0 0 0 0 0 0 0 0 0 0 0 0 0 0 0 0 0 0 0 0 0 0 0 0 0 0 0 0 0 0 0 0
0 0 0 0 0 0 0 0 0 0 0 0 0 0 0 0 0 0 0 0 0 0 0 0 0 0 0 0 0 0 0 0 0 0 0 0 -0 0 0 0 0 0 0 0 0
0 0 0 0 0 0 0 0 0 0 0 0 0 0 0 0 0 0 0 -0 0 0 0 0 0 0 0 0 0 0 0 0 0 0 0 0 0 0 0 0 0 0 0 0 0
Wind_Speed_500mb
38 33 29 25 24 23 21 20 21 20 21 18 18 18 20 22 23 29 32 19 17 29 17 25 27 26 23 19 13 13 10 18 17 13 5 2 6 4 15 9 23 15 11 11 13
42 38 31 24 21 20 21 24 24 21 20 19 16 15 15 18 26 26 8 12 20 31 27 26 30 30 13 13 12 10 10 17 6 8 7 4 8 14 11 17 14 15 20 25 18
46 42 35 25 21 22 23 24 25 23 17 14 12 13 10 15 10 3 0 11 18 33 28 23 27 21 11 11 10 8 14 10 10 18 14 9 12 8 11 19 11 16 31 25 27
51 44 37 28 22 21 22 23 23 23 17 11 8 9 8 6 6 2 1 16 23 30 28 25 26 14 10 14 11 9 13 16 11 15 16 24 12 9 18 31 31 33 35 34 31
54 47 38 30 25 23 21 20 21 23 21 12 8 7 9 7 4 4 6 23 22 25 26 23 25 13 13 12 15 13 8 12 19 22 24 24 23 19 16 30 25 24 26 27 28
58 52 40 31 25 23 21 19 19 18 19 15 8 8 8 5 3 8 11 20 20 25 24 24 20 14 12 8 13 9 9 13 13 22 17 16 27 8 10 27 31 26 23 22 27
60 67 51 34 24 22 22 21 21 21 17 15 11 9 13 7 4 12 16 18 23 24 24 15 17 10 16 9 6 5 7 8 19 12 12 13 22 15 18 16 23 22 25 23 20
57 63 67 44 27 19 20 21 26 29 19 14 12 10 10 12 10 15 19 17 14 12 10 2 10 7 2 14 6 6 3 9 3 6 8 15 27 19 10 3 12 17 20 23 22
58 64 65 60 32 21 17 21 30 18 12 11 8 7 8 16 17 16 17 10 10 5 10 6 12 7 8 8 5 1 12 14 12 8 4 11 2 9 12 5 11 15 20 23 23
57 61 64 64 39 20 17 22 16 11 9 9 12 9 8 8 13 20 22 18 5 4 13 8 5 5 5 10 11 8 8 7 12 3 3 17 21 23 25 12 16 15 20 22 26
57 61 60 60 49 20 14 13 7 5 12 18 5 12 9 7 12 19 30 20 9 4 5 4 10 16 18 10 3 3 7 15 19 20 11 22 21 25 25 19 23 22 14 21 25
58 60 61 56 53 18 11 4 7 13 17 29 31 37 37 13 3 15 29 16 10 13 9 7 21 20 7 10 10 10 12 18 19 21 12 21 24 20 21 24 26 24 23 26 26
63 64 60 56 44 15 11 6 12 18 9 10 14 19 29 25 12 19 29 21 9 14 15 18 6 10 19 13 11 12 13 10 14 9 9 14 22 21 17 19 25 32 33 31 28
69 68 67 53 20 21 7 8 14 11 7 5 7 6 23 15 9 30 34 23 8 18 14 16 14 20 16 17 22 22 27 24 19 11 21 5 21 21 18 23 20 27 27 30 38
69 67 55 39 31 17 8 5 11 2 8 5 6 13 24 17 4 9 39 27 19 14 11 6 11 16 17 29 20 18 8 11 14 18 10 20 14 24 12 23 27 31 38 30 31
77 62 44 24 17 7 14 5 4 3 6 3 8 9 12 15 2 9 13 16 9 16 14 23 5 8 12 6 18 5 15 6 3 9 23 31 24 17 22 24 27 23 21 25 31
80 48 22 8 3 19 14 10 2 6 11 6 5 1 8 10 12 8 13 19 18 11 18 19 31 19 19 24 23 14 19 14 13 16 26 18 26 28 19 25 32 24 28 31 32
67 25 12 6 15 25 14 5 6 3 5 8 8 13 1 5 1 4 9 13 8 17 22 15 18 14 14 26 22 16 17 17 19 16 18 2 16 13 14 22 17 9 21 26 26
38 33 30 14 17 20 9 4 3 1 7 11 11 3 2 10 11 14 12 5 6 7 9 7 10 4 12 22 15 23 19 16 26 12 15 19 24 18 18 13 7 13 23 30 31
35 12 37 21 16 9 4 1 2 4 11 5 4 8 2 3 4 18 16 22 18 20 11 6 18 10 8 3 8 14 10 9 10 16 30 16 14 13 14 13 6 13 23 42 38
22 7 29 4 9 8 4 3 6 15 13 7 2 4 7 7 4 3 9 9 5 13 18 10 8 20 13 11 25 13 12 7 8 7 14 24 15 5 3 3 12 13 32 37 45
18 5 28 3 6 5 4 10 17 18 14 11 7 8 1 4 7 5 13 9 8 15 17 7 8 15 27 18 9 11 16 8 14 9 9 12 18 1 4 6 15 38 39 45 30
22 12 22 6 5 5 7 7 15 22 16 12 7 6 5 5 7 19 20 23 20 15 7 6 7 9 9 10 8 17 13 1 5 4 14 14 13 11 12 31 37 36 47 40 25
14 8 16 23 15 8 10 7 11 15 9 14 8 6 4 13 12 8 7 13 20 23 19 7 9 22 24 14 4 6 14 13 10 8 25 26 41 40 32 28 35 36 30 28 20
17 5 8 8 9 12 7 5 14 11 5 6 6 13 9 8 8 12 19 24 23 30 32 8 10 18 26 29 27 30 36 34 37 39 36 42 44 40 37 25 22 23 26 32 21
8 8 7 4 10 9 4 7 14 14 11 6 7 3 9 9 12 9 21 19 16 11 9 21 8 13 24 25 35 39 39 38 38 37 38 40 47 30 13 16 19 23 26 32 34
9 8 2 4 9 7 4 7 11 17 13 17 16 10 15 21 28 32 41 49 38 24 16 15 14 11 23 14 12 19 26 29 21 19 19 25 18 9 19 19 27 35 40 44 45
Wind_Direction_500mb
359 354 344 338 337 337 336 335 328 320 307 296 283 276 276 276 276 273 269 255 228 214 180 177 183 184 183 181 165 152 200 213 214 192 181 121 16 140 332 313 335 337 309 290 230
5 1 357 351 349 349 343 339 332 323 313 305 299 284 277 283 286 280 259 230 212 184 170 169 167 167 158 162 167 187 217 214 217 206 226 231 315 335 311 303 296 308 353 341 253
5 3 358 358 358 354 349 347 342 337 327 312 302 286 278 303 291 144 336 195 172 162 165 164 160 157 156 160 168 155 224 195 223 234 263 269 280 266 284 289 252 294 306 308 304
3 359 358 350 347 349 349 349 355 352 347 325 293 273 284 288 139 83 99 170 155 169 160 157 156 146 150 170 170 198 219 213 229 231 257 269 281 272 254 265 277 280 286 288 287
6 358 353 349 339 338 342 347 352 357 354 339 311 281 300 270 256 49 104 168 173 175 178 171 161 151 176 168 155 207 221 218 242 248 255 265 259 256 256 279 287 286 286 274 266
13 6 356 349 338 331 329 335 342 345 346 339 316 298 294 261 74 120 105 164 178 176 179 171 177 163 127 146 193 190 223 257 261 247 239 244 266 196 248 291 285 291 294 295 266
18 13 359 347 339 326 321 324 329 330 326 325 310 292 273 210 149 145 136 121 128 142 146 154 153 161 146 144 157 150 251 264 241 244 243 194 259 244 258 275 277 288 293 300 304
9 7 6 349 336 325 317 315 319 313 297 303 299 292 245 204 202 171 164 151 146 153 125 163 152 142 122 125 74 197 217 246 175 199 249 203 263 274 268 311 295 314 314 302 298
1 2 1 356 337 325 314 316 317 313 271 278 274 279 259 202 205 180 183 177 158 143 174 156 143 132 133 161 185 115 244 236 284 205 235 220 297 310 296 280 292 315 321 315 307
351 353 357 356 339 326 311 323 318 306 251 266 259 284 226 172 200 220 207 197 164 72 114 145 110 162 129 196 236 178 213 226 253 111 211 282 287 286 280 279 291 295 305 306 306
341 346 348 349 343 315 307 326 345 318 251 228 245 253 272 237 206 195 199 199 199 100 170 59 216 218 222 210 167 209 261 275 277 278 303 283 282 279 282 290 288 292 278 295 297
334 334 338 344 342 300 279 265 297 307 291 276 253 251 243 241 267 179 195 175 166 197 139 195 241 233 202 197 219 233 267 271 284 278 205 276 272 269 272 278 276 285 273 274 274
330 329 328 336 338 311 251 234 313 325 278 283 235 232 231 217 224 200 186 190 181 179 196 224 195 172 194 203 225 231 223 233 259 314 236 278 272 261 249 247 259 265 280 285 278
328 326 320 324 330 325 239 215 319 316 297 246 217 213 170 167 222 212 197 184 189 224 187 246 231 222 209 230 214 246 214 242 259 264 277 231 285 264 257 250 252 264 262 263 286
330 327 314 310 304 295 204 262 316 359 302 122 121 153 167 190 134 183 199 196 199 176 190 206 178 186 209 233 189 261 186 252 263 264 266 247 259 276 223 247 253 257 262 268 280
330 328 308 296 300 225 194 275 139 229 251 66 120 158 159 215 249 121 171 203 217 214 222 257 244 253 249 175 198 285 277 269 195 252 253 258 248 262 256 258 275 266 262 279 292
338 332 309 274 152 156 168 156 195 230 343 29 20 167 223 200 219 213 164 188 213 194 228 242 245 245 228 261 250 239 272 276 253 230 259 280 262 263 259 255 267 293 303 307 311
348 6 42 72 171 158 138 114 210 4 1 356 337 316 266 29 97 180 177 216 218 239 271 258 265 209 188 215 257 229 243 255 268 260 274 218 255 264 251 274 266 341 341 334 327
5 47 38 47 147 159 145 163 251 20 334 327 319 278 76 49 49 12 3 328 48 172 227 211 244 276 263 273 247 258 233 271 261 260 262 251 256 264 247 252 352 352 0 353 343
353 33 27 80 105 112 89 245 302 339 331 299 266 11 166 18 343 351 344 354 333 355 7 285 279 253 284 241 179 227 154 210 213 269 269 248 267 259 263 266 326 335 350 344 331
8 54 6 90 57 59 72 19 335 2 358 328 311 110 95 48 347 244 208 76 32 353 343 328 252 247 316 252 269 244 228 229 284 238 265 280 263 122 255 266 315 342 327 330 328
17 50 10 63 36 38 54 334 348 351 5 19 35 36 221 124 341 333 264 237 350 359 325 352 293 256 257 269 288 256 274 258 231 230 248 285 272 8 351 352 339 320 320 318 323
359 332 9 46 45 31 358 7 20 18 359 4 249 357 3 181 212 250 250 247 304 333 274 295 225 263 251 241 253 257 253 213 21 47 217 257 263 164 311 324 323 322 316 312 307
14 356 11 52 50 14 2 339 319 349 356 2 338 322 221 236 200 272 268 309 292 262 255 126 256 245 261 293 318 288 273 249 220 240 274 253 278 286 299 312 317 325 335 330 323
27 61 15 351 9 343 322 320 298 301 261 262 264 230 197 240 238 232 258 269 277 277 265 222 248 256 265 265 267 265 258 259 250 254 256 276 283 291 298 305 306 309 322 333 312
40 3 2 352 322 353 1 317 304 310 354 310 243 295 294 236 227 265 290 281 266 256 221 161 260 253 267 268 266 267 262 258 256 257 258 270 276 299 290 287 295 307 319 315 303
17 9 12 333 353 327 336 332 325 346 303 258 298 298 268 276 277 280 275 265 256 258 250 209 240 256 276 282 296 264 264 242 241 245 255 262 290 309 297 300 313 310 305 299 296
Wind_Speed_850mb
38 33 29 25 24 23 21 20 21 20 21 18 18 18 20 22 23 29 32 19 17 29 17 25 27 26 23 19 13 13 10 18 17 13 5 2 6 4 15 9 23 15 11 11 13
42 38 31 24 21 20 21 24 24 21 20 19 16 15 15 18 26 26 8 12 20 31 27 26 30 30 13 13 12 10 10 17 6 8 7 4 8 14 11 17 14 15 20 25 18
46 42 35 25 21 22 23 24 25 23 17 14 12 13 10 15 10 3 0 11 18 33 28 23 27 21 11 11 10 8 14 10 10 18 14 9 12 8 11 19 11 16 31 25 27
51 44 37 28 22 21 22 23 23 23 17 11 8 9 8 6 6 2 1 16 23 30 28 25 26 14 10 14 11 9 13 16 11 15 16 24 12 9 18 31 31 33 35 34 31
54 47 38 30 25 23 21 20 21 23 21 12 8 7 9 7 4 4 6 23 22 25 26 23 25 13 13 12 15 13 8 12 19 22 24 24 23 19 16 30 25 24 26 27 28
58 52 40 31 25 23 21 19 19 18 19 15 8 8 8 5 3 8 11 20 20 25 24 24 20 14 12 8 13 9 9 13 13 22 17 16 27 8 10 27 31 26 23 22 27
60 67 51 34 24 22 22 21 21 21 17 15 11 9 13 7 4 12 16 18 23 24 24 15 17 10 16 9 6 5 7 8 19 12 12 13 22 15 18 16 23 22 25 23 20
57 63 67 44 27 19 20 21 26 29 19 14 12 10 10 12 10 15 19 17 14 12 10 2 10 7 2 14 6 6 3 9 3 6 8 15 27 19 10 3 12 17 20 23 22
58 64 65 60 32 21 17 21 30 18 12 11 8 7 8 16 17 16 17 10 10 5 10 6 12 7 8 8 5 1 12 14 12 8 4 11 2 9 12 5 11 15 20 23 23
57 61 64 64 39 20 17 22 16 11 9 9 12 9 8 8 13 20 22 18 5 4 13 8 5 5 5 10 11 8 8 7 12 3 3 17 21 23 25 12 16 15 20 22 26
57 61 60 60 49 20 14 13 7 5 12 18 5 12 9 7 12 19 30 20 9 4 5 4 10 16 18 10 3 3 7 15 19 20 11 22 21 25 25 19 23 22 14 21 25
58 60 61 56 53 18 11 4 7 13 17 29 31 37 37 13 3 15 29 16 10 13 9 7 21 20 7 10 10 10 12 18 19 21 12 21 24 20 21 24 26 24 23 26 26
63 64 60 56 44 15 11 6 12 18 9 10 14 19 29 25 12 19 29 21 9 14 15 18 6 10 19 13 11 12 13 10 14 9 9 14 22 21 17 19 25 32 33 31 28
69 68 67 53 20 21 7 8 14 11 7 5 7 6 23 15 9 30 34 23 8 18 14 16 14 20 16 17 22 22 27 24 19 11 21 5 21 21 18 23 20 27 27 30 38
69 67 55 39 31 17 8 5 11 2 8 5 6 13 24 17 4 9 39 27 19 14 11 6 11 16 17 29 20 18 8 11 14 18 10 20 14 24 12 23 27 31 38 30 31
77 62 44 24 17 7 14 5 4 3 6 3 8 9 12 15 2 9 13 16 9 16 14 23 5 8 12 6 18 5 15 6 3 9 23 31 24 17 22 24 27 23 21 25 31
80 48 22 8 3 19 14 10 2 6 11 6 5 1 8 10 12 8 13 19 18 11 18 19 31 19 19 24 23 14 19 14 13 16 26 18 26 28 19 25 32 24 28 31 32
67 25 12 6 15 25 14 5 6 3 5 8 8 13 1 5 1 4 9 13 8 17 22 15 18 14 14 26 22 16 17 17 19 16 18 2 16 13 14 22 17 9 21 26 26
38 33 30 14 17 20 9 4 3 1 7 11 11 3 2 10 11 14 12 5 6 7 9 7 10 4 12 22 15 23 19 16 26 12 15 19 24 18 18 13 7 13 23 30 31
35 12 37 21 16 9 4 1 2 4 11 5 4 8 2 3 4 18 16 22 18 20 11 6 18 10 8 3 8 14 10 9 10 16 30 16 14 13 14 13 6 13 23 42 38
22 7 29 4 9 8 4 3 6 15 13 7 2 4 7 7 4 3 9 9 5 13 18 10 8 20 13 11 25 13 12 7 8 7 14 24 15 5 3 3 12 13 32 37 45
18 5 28 3 6 5 4 10 17 18 14 11 7 8 1 4 7 5 13 9 8 15 17 7 8 15 27 18 9 11 16 8 14 9 9 12 18 1 4 6 15 38 39 45 30
22 12 22 6 5 5 7 7 15 22 16 12 7 6 5 5 7 19 20 23 20 15 7 6 7 9 9 10 8 17 13 1 5 4 14 14 13 11 12 31 37 36 47 40 25
14 8 16 23 15 8 10 7 11 15 9 14 8 6 4 13 12 8 7 13 20 23 19 7 9 22 24 14 4 6 14 13 10 8 25 26 41 40 32 28 35 36 30 28 20
17 5 8 8 9 12 7 5 14 11 5 6 6 13 9 8 8 12 19 24 23 30 32 8 10 18 26 29 27 30 36 34 37 39 36 42 44 40 37 25 22 23 26 32 21
8 8 7 4 10 9 4 7 14 14 11 6 7 3 9 9 12 9 21 19 16 11 9 21 8 13 24 25 35 39 39 38 38 37 38 40 47 30 13 16 19 23 26 32 34
9 8 2 4 9 7 4 7 11 17 13 17 16 10 15 21 28 32 41 49 38 24 16 15 14 11 23 14 12 19 26 29 21 19 19 25 18 9 19 19 27 35 40 44 45
Wind_Direction_850mb
359 354 344 338 337 337 336 335 328 320 307 296 283 276 276 276 276 273 269 255 228 214 180 177 183 184 183 181 165 152 200 213 214 192 181 121 16 140 332 313 335 337 309 290 230
5 1 357 351 349 349 343 339 332 323 313 305 299 284 277 283 286 280 259 230 212 184 170 169 167 167 158 162 167 187 217 214 217 206 226 231 315 335 311 303 296 308 353 341 253
5 3 358 358 358 354 349 347 342 337 327 312 302 286 278 303 291 144 336 195 172 162 165 164 160 157 156 160 168 155 224 195 223 234 263 269 280 266 284 289 252 294 306 308 304
3 359 358 350 347 349 349 349 355 352 347 325 293 273 284 288 139 83 99 170 155 169 160 157 156 146 150 170 170 198 219 213 229 231 257 269 281 272 254 265 277 280 286 288 287
6 358 353 349 339 338 342 347 352 357 354 339 311 281 300 270 256 49 104 168 173 175 178 171 161 151 176 168 155 207 221 218 242 248 255 265 259 256 256 279 287 286 286 274 266
13 6 356 349 338 331 329 335 342 345 346 339 316 298 294 261 74 120 105 164 178 176 179 171 177 163 127 146 193 190 223 257 261 247 239 244 266 196 248 291 285 291 294 295 266
18 13 359 347 339 326 321 324 329 330 326 325 310 292 273 210 149 145 136 121 128 142 146 154 153 161 146 144 157 150 251 264 241 244 243 194 259 244 258 275 277 288 293 300 304
9 7 6 349 336 325 317 315 319 313 297 303 299 292 245 204 202 171 164 151 146 153 125 163 152 142 122 125 74 197 217 246 175 199 249 203 263 274 268 311 295 314 314 302 298
1 2 1 356 337 325 314 316 317 313 271 278 274 279 259 202 205 180 183 177 158 143 174 156 143 132 133 161 185 115 244 236 284 205 235 220 297 310 296 280 292 315 321 315 307
351 353 357 356 339 326 311 323 318 306 251 266 259 284 226 172 200 220 207 197 164 72 114 145 110 162 129 196 236 178 213 226 253 111 211 282 287 286 280 279 291 295 305 306 306
341 346 348 349 343 315 307 326 345 318 251 228 245 253 272 237 206 195 199 199 199 100 170 59 216 218 222 210 167 209 261 275 277 278 303 283 282 279 282 290 288 292 278 295 297
334 334 338 344 342 300 279 265 297 307 291 276 253 251 243 241 267 179 195 175 166 197 139 195 241 233 202 197 219 233 267 271 284 278 205 276 272 269 272 278 276 285 273 274 274
330 329 328 336 338 311 251 234 313 325 278 283 235 232 231 217 224 200 186 190 181 179 196 224 195 172 194 203 225 231 223 233 259 314 236 278 272 261 249 247 259 265 280 285 278
328 326 320 324 330 325 239 215 319 316 297 246 217 213 170 167 222 212 197 184 189 224 187 246 231 222 209 230 214 246 214 242 259 264 277 231 285 264 257 250 252 264 262 263 286
330 327 314 310 304 295 204 262 316 359 302 122 121 153 167 190 134 183 199 196 199 176 190 206 178 186 209 233 189 261 186 252 263 264 266 247 259 276 223 247 253 257 262 268 280
330 328 308 296 300 225 194 275 139 229 251 66 120 158 159 215 249 121 171 203 217 214 222 257 244 253 249 175 198 285 277 269 195 252 253 258 248 262 256 258 275 266 262 279 292
338 332 309 274 152 156 168 156 195 230 343 29 20 167 223 200 219 213 164 188 213 194 228 242 245 245 228 261 250 239 272 276 253 230 259 280 262 263 259 255 267 293 303 307 311
348 6 42 72 171 158 138 114 210 4 1 356 337 316 266 29 97 180 177 216 218 239 271 258 265 209 188 215 257 229 243 255 268 260 274 218 255 264 251 274 266 341 341 334 327
5 47 38 47 147 159 145 163 251 20 334 327 319 278 76 49 49 12 3 328 48 172 227 211 244 276 263 273 247 258 233 271 261 260 262 251 256 264 247 252 352 352 0 353 343
353 33 27 80 105 112 89 245 302 339 331 299 266 11 166 18 343 351 344 354 333 355 7 285 279 253 284 241 179 227 154 210 213 269 269 248 267 259 263 266 326 335 350 344 331
8 54 6 90 57 59 72 19 335 2 358 328 311 110 95 48 347 244 208 76 32 353 343 328 252 247 316 252 269 244 228 229 284 238 265 280 263 122 255 266 315 342 327 330 328
17 50 10 63 36 38 54 334 348 351 5 19 35 36 221 124 341 333 264 237 350 359 325 352 293 256 257 269 288 256 274 258 231 230 248 285 272 8 351 352 339 320 320 318 323
359 332 9 46 45 31 358 7 20 18 359 4 249 357 3 181 212 250 250 247 304 333 274 295 225 263 251 241 253 257 253 213 21 47 217 257 263 164 311 324 323 322 316 312 307
14 356 11 52 50 14 2 339 319 349 356 2 338 322 221 236 200 272 268 309 292 262 255 126 256 245 261 293 318 288 273 249 220 240 274 253 278 286 299 312 317 325 335 330 323
27 61 15 351 9 343 322 320 298 301 261 262 264 230 197 240 238 232 258 269 277 277 265 222 248 256 265 265 267 265 258 259 250 254 256 276 283 291 298 305 306 309 322 333 312
40 3 2 352 322 353 1 317 304 310 354 310 243 295 294 236 227 265 290 281 266 256 221 161 260 253 267 268 266 267 262 258 256 257 258 270 276 299 290 287 295 307 319 315 303
17 9 12 333 353 327 336 332 325 346 303 258 298 298 268 276 277 280 275 265 256 258 250 209 240 256 276 282 296 264 264 242 241 245 255 262 290 309 297 300 313 310 305 299 296